Weather History for KMIW - November, 2013

Change the Weather History Date:

Sunday, November 10, 2013

  Actual Average Record
Temperature  
Mean Temperature 35 °F 39 °F  
Max Temperature 46 °F 49 °F 77 °F (2012)
Min Temperature 23 °F 29 °F 20 °F (2008)
Degree Days  
Heating Degree Days 30 26  
Month to date heating degree days 232 235  
Since 1 July heating degree days 781 868  
Cooling Degree Days 0 0  
Month to date cooling degree days 0 0  
Year to date cooling degree days 872 728  
Moisture  
Dew Point 28 °F    
Average Humidity 75    
Maximum Humidity 92    
Minimum Humidity 57    
Precipitation  
Precipitation 0.00 in 0.09 in 0.72 in (1998)
Month to date precipitation 0.91 1.05  
Sea Level Pressure  
Sea Level Pressure 30.32 in    
Wind  
Wind Speed 7 mph (WSW)    
Max Wind Speed 13 mph    
Max Gust Speed 16 mph    
Visibility 10 miles    
Events      
T = Trace of Precipitation, MM = Missing Value Source: NWS Daily Summary

Daily Weather History Graph

Daily Weather History Graph

Search for Another Location

Airport or City:

Trip Planner

Search our weather history database for the weather conditions in past years. The results will help you decide how hot, cold, wet, or windy it might be!

Date:

Astronomy

Nov. 10, 2013 Rise Set
Actual Time 6:55 AM CST 4:54 PM CST
Civil Twilight 6:26 AM CST 5:24 PM CST
Nautical Twilight 5:52 AM CST 5:58 PM CST
Astronomical Twilight 5:19 AM CST 6:30 PM CST
Moon 1:07 PM CST (11/10) No Moon Set
Length of Visible Light 10h 58m
Length of Day
9h 58m
First Quarter, 56% of the Moon is Illuminated
Nov 10
First Quarter
Nov 17
Full
Nov 25
Last Quarter
Dec 2
New
Dec 9
First Quarter

Hourly Weather History & Observations

Time (CST) Temp. Windchill Dew Point Humidity Pressure Visibility Wind Dir Wind Speed Gust Speed Precip Events Conditions
12:53 AM 30.9 °F 23.5 °F 27.0 °F 85% 30.32 in 10.0 mi NW 8.1 mph - N/A   Clear
1:53 AM 30.0 °F 22.4 °F 26.1 °F 85% 30.32 in 10.0 mi West 8.1 mph - N/A   Clear
2:53 AM 28.9 °F 20.4 °F 25.0 °F 85% 30.34 in 10.0 mi WNW 9.2 mph - N/A   Clear
3:53 AM 28.0 °F 20.8 °F 24.1 °F 85% 30.35 in 10.0 mi West 6.9 mph - N/A   Clear
4:53 AM 27.0 °F 20.5 °F 24.1 °F 89% 30.37 in 10.0 mi WNW 5.8 mph - N/A   Clear
5:53 AM 26.1 °F 20.5 °F 23.0 °F 88% 30.39 in 10.0 mi WNW 4.6 mph - N/A   Clear
6:53 AM 24.1 °F 16.0 °F 21.9 °F 91% 30.40 in 10.0 mi WNW 6.9 mph - N/A   Clear
7:53 AM 27.0 °F 19.5 °F 24.1 °F 89% 30.41 in 10.0 mi WNW 6.9 mph - N/A   Clear
8:53 AM 30.9 °F 24.3 °F 27.0 °F 85% 30.43 in 10.0 mi West 6.9 mph - N/A   Clear
9:53 AM 35.1 °F 29.3 °F 28.9 °F 78% 30.43 in 10.0 mi SW 6.9 mph - N/A   Clear
10:53 AM 39.0 °F 34.0 °F 30.0 °F 70% 30.42 in 10.0 mi WSW 6.9 mph - N/A   Clear
11:53 AM 39.9 °F 35.1 °F 28.9 °F 65% 30.39 in 10.0 mi SW 6.9 mph - N/A   Clear
12:53 PM 43.0 °F 38.8 °F 30.0 °F 60% 30.35 in 10.0 mi WSW 6.9 mph - N/A   Overcast
1:53 PM 42.1 °F 36.1 °F 28.9 °F 60% 30.35 in 10.0 mi SW 10.4 mph - N/A   Overcast
2:53 PM 42.1 °F 36.6 °F 30.0 °F 62% 30.32 in 10.0 mi SSW 9.2 mph - N/A   Overcast
3:53 PM 43.0 °F 38.8 °F 28.9 °F 58% 30.30 in 10.0 mi South 6.9 mph - N/A   Overcast
4:53 PM 42.1 °F 38.4 °F 30.0 °F 62% 30.28 in 10.0 mi South 5.8 mph - N/A   Overcast
5:53 PM 39.0 °F 35.7 °F 28.9 °F 67% 30.27 in 10.0 mi SSE 4.6 mph - N/A   Overcast
6:53 PM 37.9 °F 33.5 °F 28.9 °F 70% 30.25 in 10.0 mi SSE 5.8 mph - N/A   Partly Cloudy
7:53 PM 37.0 °F 33.3 °F 28.0 °F 70% 30.22 in 10.0 mi SE 4.6 mph - N/A   Partly Cloudy
8:53 PM 43.0 °F 38.8 °F 30.9 °F 62% 30.21 in 10.0 mi SSW 6.9 mph - N/A   Overcast
9:53 PM 45.0 °F 40.6 °F 30.9 °F 58% 30.19 in 10.0 mi SSW 8.1 mph - N/A   Overcast
10:53 PM 45.0 °F 39.7 °F 30.9 °F 58% 30.18 in 10.0 mi SSW 10.4 mph - N/A   Overcast
11:53 PM 44.1 °F 38.6 °F 32.0 °F 63% 30.16 in 10.0 mi SSW 10.4 mph - N/A   Overcast